Theta_e
332 326 322 326 330 330 330 329 328 329 330 328 328 329 329 327 329 335 334 335 334 333 332 327 332 334 332 328 326 324 317 312 313 318 322 325 322 330 330 330 332 325 320 317 315 315 315 315 315
332 325 325 328 333 331 329 327 328 329 330 329 328 329 330 333 334 334 334 331 334 333 333 331 332 334 331 329 327 323 317 312 313 319 322 323 322 330 329 329 330 325 319 319 315 315 315 316 316
331 325 327 331 332 331 330 329 328 330 329 330 329 330 330 332 334 334 334 330 334 331 334 334 333 334 330 331 328 322 315 313 314 319 319 323 323 325 329 326 329 328 320 318 315 315 316 316 316
331 330 327 331 332 328 327 328 328 330 329 329 331 330 331 333 335 333 328 330 334 331 333 329 332 333 330 331 329 321 316 321 322 324 316 319 320 322 329 327 329 328 322 318 314 315 315 316 316
330 330 332 332 330 328 327 328 329 330 329 329 330 329 329 334 328 327 325 328 332 330 333 327 333 333 330 330 329 321 317 326 325 322 315 313 314 316 329 328 328 329 326 315 314 314 315 315 316
332 331 335 334 330 326 327 328 329 329 328 329 330 328 330 325 324 325 327 329 331 329 333 329 333 334 330 329 329 324 319 329 329 324 315 313 313 314 328 329 328 326 326 315 315 314 314 315 315
332 335 335 335 332 328 325 326 329 329 329 329 330 329 332 333 332 328 325 331 329 327 330 333 333 334 332 329 328 326 319 328 329 326 314 314 313 313 319 328 324 318 318 316 315 315 314 314 315
330 332 335 334 334 333 325 325 324 327 329 328 329 329 329 333 325 329 325 330 327 323 324 332 338 332 332 330 328 326 321 317 322 315 314 314 313 313 313 316 321 316 316 316 316 316 315 314 314
328 333 335 335 334 333 326 324 324 323 325 327 330 330 331 329 323 327 330 328 322 315 319 330 332 336 335 332 327 326 320 316 314 315 314 314 314 313 313 314 315 315 315 316 316 316 315 315 314
331 334 333 332 332 331 328 327 327 325 325 326 327 329 326 327 327 323 329 329 324 316 313 325 330 331 336 337 330 324 320 316 315 312 314 315 325 321 317 314 314 314 314 315 316 316 316 316 315
328 332 331 331 330 329 329 329 329 328 330 328 328 327 331 327 329 331 330 329 328 322 323 318 327 330 330 333 328 325 325 319 315 319 319 323 324 318 314 313 313 313 314 314 315 315 315 316 319
328 327 326 329 329 327 328 329 330 328 329 329 330 327 327 330 331 332 332 331 330 327 323 318 323 328 324 323 323 324 325 322 321 318 323 323 321 316 314 314 313 313 313 315 315 315 316 315 315
328 323 324 326 327 327 327 328 328 328 328 327 327 328 326 324 328 329 331 332 331 328 324 318 320 325 321 320 325 323 322 319 318 316 313 314 316 316 315 317 315 314 314 314 314 314 314 315 315
325 324 324 324 325 325 325 325 326 325 326 325 327 327 325 326 326 327 329 331 328 329 328 324 320 320 320 317 319 315 319 316 317 317 313 313 313 314 315 315 315 314 314 314 314 314 315 315 315
325 326 324 325 325 325 325 325 324 323 325 324 325 325 325 324 327 327 327 331 330 325 328 327 324 319 319 317 319 318 315 314 313 314 313 312 313 313 314 314 314 314 314 314 314 314 315 315 315
326 325 326 322 323 325 326 322 322 322 324 324 325 325 326 326 325 325 326 328 331 330 326 328 326 325 320 317 317 318 317 315 314 314 314 313 313 313 314 314 314 314 314 314 314 314 314 315 316
325 326 327 325 323 324 327 325 322 323 324 324 324 325 325 326 326 324 325 326 328 331 327 327 327 326 325 321 318 317 318 316 315 315 315 315 314 314 314 314 315 315 315 314 314 314 315 316 316
324 326 324 324 323 324 325 325 324 324 325 326 325 325 325 324 324 325 324 324 326 329 330 326 326 326 327 325 322 319 316 316 316 316 316 316 315 315 315 315 315 316 316 316 315 315 315 316 320
321 322 323 322 322 322 323 323 323 322 323 323 324 325 325 325 324 324 325 323 323 327 329 327 324 324 327 327 325 322 321 318 316 316 316 316 316 316 315 315 315 316 317 316 316 316 317 318 319
323 323 323 321 320 321 321 322 321 321 322 322 323 323 324 324 324 323 323 325 323 325 324 324 327 323 325 327 326 324 322 321 321 318 316 316 316 317 316 316 316 316 316 317 318 318 318 319 320
320 321 321 322 320 320 320 322 321 320 320 320 321 321 322 322 323 322 322 323 324 323 326 323 320 320 324 325 326 326 326 325 325 323 321 317 316 316 316 316 316 316 316 317 317 318 319 319 320
321 319 319 319 320 321 318 321 319 319 319 319 319 320 320 322 322 322 323 323 323 323 324 326 325 322 320 323 327 326 324 322 319 319 320 321 319 317 317 317 317 317 317 317 317 318 319 320 321
320 318 318 319 321 320 319 321 319 320 320 320 320 319 319 320 321 321 322 323 324 324 323 323 326 326 323 321 322 324 326 325 324 323 321 321 320 321 320 318 318 317 317 317 317 318 319 320 320
318 319 319 320 321 323 320 320 320 319 321 322 321 321 321 320 321 322 322 323 324 324 324 323 324 326 327 325 322 323 322 323 326 325 324 322 322 321 321 321 320 320 319 319 319 319 319 320 321
318 319 322 323 322 324 319 322 321 321 321 321 321 321 321 321 321 320 320 319 320 322 322 322 323 325 327 328 326 323 322 321 321 322 324 325 324 323 322 321 321 321 321 322 321 321 322 321 321
319 319 321 320 324 321 320 323 323 321 320 320 321 320 320 320 316 313 312 311 311 312 318 321 320 322 326 328 328 326 324 323 321 321 321 322 324 323 323 323 322 322 322 322 323 323 323 323 323
318 320 318 319 319 321 322 321 320 320 320 320 319 319 317 316 315 312 313 315 316 314 310 316 318 318 320 325 328 328 327 325 324 324 323 324 322 323 324 323 323 323 324 324 324 324 323 324 324
317 317 320 319 320 321 317 319 320 320 320 319 320 318 315 314 315 315 314 313 316 316 315 311 312 312 316 318 323 328 323 325 325 325 325 325 325 324 326 326 323 322 323 324 325 324 323 325 324
316 318 318 319 320 320 319 318 317 317 318 318 318 316 314 313 315 316 315 315 315 316 317 317 312 314 313 315 317 323 319 321 324 325 325 325 325 326 327 326 325 323 322 324 325 324 324 323 323
316 316 317 319 316 318 318 318 316 317 318 317 316 315 315 316 317 316 315 315 316 315 316 317 315 309 314 314 314 315 315 316 321 323 324 325 326 327 327 326 325 324 323 324 325 325 326 325 324
Wind_Speed
14 12 10 5 5 2 4 5 2 5 3 4 5 4 10 5 8 4 9 10 14 15 14 15 13 10 9 7 6 5 4 5 8 11 10 12 15 17 15 16 13 8 15 17 17 18 17 17 18
13 11 5 4 4 3 5 2 2 6 5 3 3 2 0 8 5 4 11 13 15 14 13 14 15 12 9 7 7 5 4 5 8 11 10 12 12 16 12 14 14 10 14 15 15 17 16 17 17
12 7 5 4 3 6 4 4 5 5 3 2 2 1 4 4 3 6 7 17 15 14 14 14 15 13 10 8 7 5 4 6 8 9 10 10 11 16 13 10 13 11 13 14 14 15 15 15 15
13 4 4 5 2 6 5 5 7 9 3 1 2 2 2 2 3 4 11 16 15 14 15 15 15 13 10 8 7 6 4 6 6 9 8 10 10 15 13 11 13 10 11 12 13 13 13 13 13
8 6 4 3 3 4 4 2 5 8 6 3 2 4 2 2 2 6 14 16 15 14 13 18 16 13 11 9 7 6 5 7 6 3 8 8 10 12 13 11 13 11 9 11 12 11 11 11 11
8 5 7 7 3 2 5 3 5 6 2 4 2 2 3 3 3 9 14 15 13 14 14 16 17 15 13 11 9 7 7 9 7 5 7 7 8 10 12 11 10 12 9 9 10 10 9 9 8
8 6 11 7 6 5 3 2 4 3 2 2 1 2 3 1 5 11 15 14 15 14 15 15 17 16 14 12 11 8 8 10 10 8 9 7 7 8 12 11 9 10 10 8 8 8 7 7 7
6 5 13 10 10 9 6 6 4 6 3 0 1 1 5 6 3 11 14 14 14 15 16 15 17 18 15 15 13 11 10 11 13 10 10 8 7 7 9 11 11 10 10 8 7 7 6 6 5
3 7 11 13 10 9 6 8 4 3 5 3 3 2 4 3 3 11 14 15 17 18 18 17 17 17 18 16 16 14 13 12 14 12 11 10 8 9 9 10 10 10 10 9 7 6 5 4 4
10 10 18 14 6 6 8 9 6 6 9 7 6 6 5 6 8 12 16 18 19 21 22 20 19 19 19 18 17 17 16 14 13 13 12 12 9 9 10 10 11 11 11 10 8 7 5 4 2
8 15 15 17 8 10 11 9 11 11 14 11 10 9 9 9 11 15 17 19 20 19 20 22 21 20 23 21 20 16 15 15 15 14 14 12 13 15 14 13 13 13 12 12 10 9 7 5 5
10 15 17 12 8 7 11 12 11 15 18 17 11 15 12 14 15 17 19 20 20 22 23 24 22 22 22 23 21 19 18 18 17 17 17 16 16 15 15 14 15 14 14 12 12 11 9 8 7
12 16 11 15 8 11 13 15 16 25 21 19 18 19 17 18 18 17 19 19 21 23 24 26 25 25 25 24 22 21 21 21 20 19 20 19 18 17 17 15 16 15 15 15 13 12 11 10 9
2 14 15 14 11 14 12 20 16 22 16 19 18 21 21 21 21 20 21 22 24 24 25 25 28 28 26 27 27 24 23 22 22 21 21 21 20 20 19 18 18 17 17 16 14 13 12 11 10
9 11 11 14 14 12 8 18 20 33 25 25 24 25 22 23 22 24 23 25 26 26 25 28 28 30 31 29 28 26 27 25 25 24 23 22 22 22 21 21 20 19 19 17 16 16 15 13 12
9 11 11 8 18 12 9 18 16 19 18 23 18 19 22 25 26 26 25 25 25 26 28 28 30 30 32 33 31 29 28 27 27 27 26 25 24 24 23 23 23 22 21 20 19 18 17 16 13
10 11 16 13 16 9 12 13 12 14 19 25 23 21 21 22 22 23 24 25 25 28 28 29 31 32 33 34 33 32 32 31 30 29 28 27 27 26 25 25 24 23 23 22 21 20 18 16 15
12 16 16 15 9 13 17 20 19 23 27 25 27 26 26 26 26 22 24 26 25 27 28 29 31 32 34 35 36 36 37 37 34 32 31 30 29 29 28 28 27 25 25 24 23 23 21 19 14
16 17 16 13 6 10 17 21 20 27 30 30 30 30 31 30 29 25 26 25 27 28 28 33 34 34 37 38 40 42 44 41 38 37 35 35 34 33 32 31 30 30 29 27 26 25 23 22 19
20 19 19 14 7 10 19 25 23 25 31 33 32 34 33 32 31 27 26 27 29 30 34 35 34 36 39 41 40 41 42 42 40 41 40 40 39 38 36 35 35 34 33 31 29 29 27 25 22
18 19 16 15 12 15 17 28 26 27 38 37 37 39 39 38 37 37 32 31 32 33 37 39 40 39 41 41 40 41 40 41 43 45 45 45 42 42 40 40 38 38 37 36 33 33 32 30 26
19 16 15 13 9 9 4 11 20 20 23 23 26 27 30 30 32 32 29 29 31 35 36 41 45 43 44 42 43 45 47 47 47 45 45 45 45 46 44 43 42 41 41 41 37 37 36 33 31
12 10 11 12 14 15 18 10 6 7 14 14 15 20 24 25 24 26 26 26 29 29 35 41 45 49 47 46 47 47 49 49 48 46 46 45 44 46 47 47 44 45 45 44 40 41 40 38 36
5 10 10 9 3 7 15 13 11 11 7 5 8 19 18 19 17 15 19 20 21 24 28 37 41 44 48 50 49 50 51 50 49 50 50 48 47 46 47 48 48 48 47 46 45 44 43 42 40
15 10 3 5 4 8 10 13 19 7 10 17 18 16 16 15 15 16 19 17 17 20 25 28 38 42 42 47 52 52 52 51 51 50 52 52 50 51 48 48 49 49 48 48 48 47 46 45 43
20 14 5 8 6 6 11 12 12 5 11 13 13 12 14 10 7 7 10 15 17 18 21 25 26 37 38 41 50 52 51 50 51 51 52 53 54 52 48 49 50 48 47 49 50 50 49 48 47
14 17 18 12 1 3 7 18 18 16 17 23 18 11 1 3 6 8 14 23 27 28 19 20 24 28 32 39 43 49 52 53 52 51 51 52 52 52 50 49 48 45 47 48 49 48 48 47 48
17 11 3 4 6 9 14 19 14 6 10 12 7 13 2 7 8 14 18 22 29 22 25 21 23 30 32 35 39 46 43 48 52 51 52 52 52 50 49 50 49 44 42 44 46 45 43 44 46
15 17 8 6 6 5 5 9 6 10 8 2 6 3 8 8 16 22 21 25 27 26 24 26 24 22 30 33 33 43 34 39 45 49 51 52 52 49 48 50 49 45 43 40 41 41 41 42 42
20 25 23 9 9 5 9 17 4 4 1 6 6 5 9 14 20 24 25 31 25 27 27 24 25 25 22 24 30 37 32 35 42 46 47 47 48 49 49 49 47 45 43 40 39 39 39 40 39
Wind_Direction
356 348 336 310 250 220 76 79 51 98 118 56 92 343 13 18 7 37 144 154 156 151 167 166 159 161 149 144 131 119 114 115 117 117 112 114 117 113 114 112 105 91 99 97 95 95 93 91 90
356 3 312 290 273 263 90 63 94 68 67 114 139 297 220 73 56 110 143 158 152 153 159 169 162 168 157 146 123 118 125 132 132 124 120 120 122 120 113 121 121 109 101 101 97 98 95 93 92
346 342 292 312 293 45 63 76 112 97 102 151 189 326 353 55 75 138 158 157 157 156 156 183 168 171 164 148 128 123 126 120 126 121 129 125 124 133 121 124 117 115 106 104 103 99 99 97 96
356 292 226 263 39 72 34 59 129 142 157 215 324 142 88 70 94 155 167 163 158 161 161 178 170 175 170 156 141 133 137 128 125 136 139 141 138 138 134 128 122 125 115 111 106 104 103 100 98
327 276 267 251 102 93 43 4 181 160 135 135 262 66 60 91 166 174 169 167 162 164 171 175 171 182 178 172 161 154 161 158 153 170 154 143 141 142 138 137 135 134 127 114 111 109 106 103 100
292 291 258 240 150 142 80 65 189 182 127 123 196 320 71 286 205 175 166 165 169 168 174 181 179 187 187 185 181 173 167 168 175 193 163 146 145 149 148 148 146 147 138 120 116 112 107 106 104
283 277 277 295 242 211 130 148 197 209 213 160 12 309 91 73 185 176 168 171 174 179 174 191 185 190 190 194 195 197 182 178 181 192 173 157 162 164 161 161 166 155 150 147 133 122 116 113 110
260 270 270 255 265 252 157 178 190 216 190 340 242 134 114 148 195 177 175 177 181 187 184 185 189 195 197 202 204 211 207 202 214 210 186 175 179 184 179 176 173 170 163 162 152 143 135 124 118
206 246 250 245 242 266 159 195 204 222 219 204 207 261 176 196 190 182 183 192 192 199 193 190 196 195 200 204 211 214 218 213 224 212 199 183 187 194 189 188 187 179 180 176 171 168 156 142 137
217 231 244 259 274 257 196 237 212 229 209 210 210 207 228 224 204 198 201 202 206 209 204 199 197 201 202 202 216 215 222 224 223 218 201 187 192 199 191 202 197 193 194 193 189 189 184 176 175
214 241 250 258 255 263 265 238 245 256 254 247 240 203 205 203 210 208 214 216 218 214 213 207 206 199 206 201 212 207 218 215 217 217 213 193 204 214 209 209 207 205 204 206 202 206 205 195 196
246 240 261 273 271 238 245 253 253 251 263 283 271 249 236 218 215 221 217 216 215 217 217 220 211 207 214 208 211 209 211 212 215 214 211 208 209 217 210 215 213 214 212 212 212 215 220 220 222
242 247 242 250 253 251 267 249 258 264 266 267 272 265 252 245 237 229 228 221 217 223 225 227 216 215 216 213 216 212 215 217 217 218 219 215 215 218 214 219 217 218 219 220 220 224 230 233 237
280 240 247 248 254 258 258 261 256 259 266 260 260 259 258 254 248 240 227 220 225 225 224 227 223 221 218 221 220 219 220 221 217 221 223 220 218 220 221 221 223 223 225 224 225 229 235 242 246
249 254 250 237 239 252 262 261 248 260 260 261 262 259 261 263 250 245 239 229 224 230 223 224 231 228 224 223 225 223 225 227 224 224 225 223 222 224 224 226 227 227 230 228 229 231 235 241 248
222 241 251 234 228 220 226 261 266 258 259 252 258 263 258 262 261 254 246 239 228 224 226 221 231 231 229 229 226 227 229 229 229 225 228 226 225 226 227 229 229 231 233 232 234 236 239 241 245
221 242 220 241 211 235 212 271 264 266 271 260 269 264 265 266 263 260 251 244 234 225 224 224 227 230 230 229 231 229 229 231 232 229 229 230 229 227 229 230 232 232 234 236 235 237 238 242 240
225 227 243 247 202 214 251 263 265 267 274 270 266 271 267 264 262 262 258 251 240 233 224 226 229 231 228 227 231 231 234 234 233 231 233 233 234 232 230 232 232 232 235 236 237 238 239 236 239
253 245 253 252 244 292 270 273 274 273 267 266 264 264 265 266 265 263 257 250 245 232 227 226 227 230 226 225 227 230 235 236 237 235 232 236 236 235 232 232 234 234 236 237 238 240 237 240 232
242 252 250 256 275 276 278 274 270 268 269 265 266 268 269 269 265 263 259 251 244 239 236 233 227 231 230 229 233 236 241 242 242 240 236 234 236 237 236 235 235 237 238 237 237 238 238 238 237
234 239 245 262 290 275 287 284 263 254 257 260 259 263 264 264 266 268 264 253 245 238 238 239 239 237 235 232 231 232 235 242 242 240 238 236 236 239 238 238 237 239 241 240 241 242 240 240 235
240 240 256 262 273 258 260 288 288 289 275 272 271 263 261 258 259 265 266 260 252 246 241 242 248 244 240 236 230 232 234 237 242 243 244 241 239 240 241 242 240 240 243 243 242 244 245 241 239
233 249 242 247 253 267 258 271 281 270 281 273 261 267 261 262 262 269 266 269 264 253 250 243 245 246 243 240 235 234 235 239 243 243 244 244 242 242 243 244 243 242 242 246 244 244 244 245 243
208 241 258 258 310 240 234 227 281 258 271 313 275 268 275 268 272 287 282 277 272 260 255 244 244 244 244 242 241 236 239 239 237 243 245 246 245 245 243 244 245 245 244 246 247 246 247 247 248
220 211 207 221 212 244 211 208 244 285 267 291 272 290 302 288 292 289 292 295 287 271 266 258 247 243 236 240 242 243 242 242 243 245 247 247 246 244 245 243 243 244 245 245 246 247 248 249 248
207 189 209 215 210 249 192 232 244 238 253 269 272 295 304 300 306 330 343 2 345 303 267 258 258 248 238 232 242 246 244 244 245 245 247 249 250 252 253 249 246 246 245 245 245 248 250 250 252
194 220 235 273 297 278 226 249 262 254 246 267 261 263 223 9 2 12 7 359 359 357 326 270 268 261 252 240 239 243 246 246 247 250 250 249 251 252 252 252 251 248 246 245 244 244 247 246 249
232 156 149 206 224 232 241 246 246 190 225 265 247 196 287 317 316 340 341 338 346 350 354 336 291 274 258 253 239 239 249 252 252 253 253 249 249 249 247 249 252 251 247 244 242 243 244 241 246
209 225 228 212 222 228 250 240 259 282 272 239 347 155 330 353 334 334 332 331 331 332 332 339 329 295 263 248 244 240 248 252 255 254 255 254 249 245 242 246 249 252 250 245 241 241 244 244 246
218 221 215 217 214 264 278 269 291 285 220 335 315 359 332 320 327 330 326 330 320 325 331 325 322 315 293 257 245 248 250 252 251 251 251 248 243 243 242 245 247 249 251 249 243 241 242 245 246